Location: DARK SKY Beskydy - Park tmavé oblohy, www.darkskybeskydy.cz
(49.4926°N, 18.5016°E)
Time: 02:27:29
(UTC+02:00)

A-11 Canister half - Pass Details

Date: 02 March 2024
Orbit: 1513 x 1686 km, 47.2° (Epoch: 24 April)

Event Time Altitude Azimuth Distance (km) Brightness Sun altitude
Rises 03:16:22 0° 270° (W) 4,940 - -30.8°
Reaches altitude 10° 03:19:33 10° 269° (W) 3,947 - -30.3°
Exits shadow 03:26:50 53° 259° (W) 1,979 9.1 -29.3°
Maximum altitude 03:29:42 79° 186° (S) 1,688 9.0 -28.8°
Drops below altitude 10° 03:39:34 10° 101° (ESE) 3,843 11.8 -27.4°
Sets 03:42:38 0° 101° (E) 4,806 12.4 -26.9°
